QZS-3

Last updated on Jan. 9, 2019, 2:59 a.m. UTC

1 42917U 17048A   19008.34808413 -.00000345  00000-0  00000+0 0  9994
2 42917   0.0608 157.7752 0001941 146.4535  55.7390  1.00272797  5139
UTC
Height (km)
Latitude
Longitude
Inclination
Orbital Period
UTC large
Height (km)
Speed (km/s)
/
Latitude / Longitude
Inclination (degrees)
Orbital Period (minutes)
Azimuth
Elevation
Range (km)
Doppler Factor
iOS Compass Heading
iOS Angle

Next 30 passes for location: Hong Kong

Rise time Rise Azimuth (degrees) Set time Set Azimuth (degrees) Duration Max altitude (degrees)

No matching passes for this satellites